Location: Canyon Rim
(40.8777°N, 111.8641°W)
Time: 07:27:50
(UTC+00:00)

Hubble Space Telescope - Visible Passes

Search period start: 17 April 2021 00:00
Search period end: 27 April 2021 00:00
Orbit: 535 x 539 km, 28.5° (Epoch: 16 April)

Date Brightness Start Highest point End Pass type
(mag) Time Alt. Az. Time Alt. Az. Time Alt. Az.
22 Apr 3.0 02:53:01 10° S 02:53:54 11° SSE 02:54:48 10° SSE visible
23 Apr 2.9 02:41:19 10° SSW 02:42:51 12° S 02:44:24 10° SSE visible
23 Apr 3.3 04:20:59 10° SW 04:21:08 10° SW 04:21:08 10° SW visible
24 Apr 3.1 04:10:03 10° SW 04:10:57 12° SSW 04:10:57 12° SSW visible
25 Apr 3.0 03:59:11 10° SW 04:00:42 13° SSW 04:00:42 13° SSW visible
26 Apr 3.0 03:48:25 10° SW 03:50:09 12° S 03:50:24 12° S visible
